Погода в Говернадор-Валадарисе

Бразилия     18°50′53″S   41°57′01″W
темп.,
°C
ветер,
м/с
пор.,
м/с
влажн.,
%
обл.,
%
осадки,
мм/ч
давл.,
гПа
погр.,
м
27 февраля, сб
сб2700:00+21в1193100 0.0 101523
03:00+20в0194100 0.1 101424
06:00+19в0197100 0.0 101523
09:00+24вюв1182100 0.1 1016592
12:00+25всв2274100 0.1 1015904
15:00+26ю1172100 0.3 1013896
18:00+23вюв2290100 3.6 101357
21:00+21в2492100 4.6 1015118
28 февраля, вс
вс2800:00+21всв2696100 0.2 1015218
03:00+20в1197100 0.2 101423
06:00+19в019896 0.0 101523
09:00+23вюв138894 0.4 1016480
12:00+26юв2373100 0.1 1015931
15:00+27вюв3372100 0.6 10121034
18:00+23вюв2392100 1.4 101294
21:00+21вюв2794100 1.8 1014231
1 марта, пн
пн100:00+20вюв129799 0.5 101527
03:00+21вюв129699 2.1 1014113
06:00+19юв119889 0.1 101525
09:00+24вюв238293 0.1 1015730
12:00+26в1272100 0.1 1015940
15:00+27вюв247293 0.6 10121074
18:00+24вюв238145 0.3 101253
21:00+21в269173 0.4 1015192
2 марта, вт
вт200:00+20в1197100 0.1 101523
03:00+19с0197100 0.2 101523
06:00+20ююз1197100 0.1 101647
09:00+24в238488 0.3 1017610
12:00+27в226858 0.5 10161084
15:00+27в227275 0.9 1013851
18:00+24в228644 0.1 101347
21:00+22в239247 0.4 101679
3 марта, ср
ср300:00+22вюв2694100 0.7 1017237
03:00+19св119785 0.8 101623
06:00+18всв119723 0.0 101823
09:00+24св128234 0.0 1019635
12:00+26ссв117085 0.1 10181014
15:00+29всв126353 0.1 10141260
18:00+24в23824 0.0 101444
21:00+22всв118732 0.1 101723